[[{"header":{"parameterUnit":"m.s-1","parameterCategory":1,"la1":30.2991,"la2":30.254,"lo1":-89.0895,"lo2":-89.0444,"dy":0.0017,"dx":0.0017,"nx":28,"ny":28,"refTime":"2024-07-08T03:00:00:Z","depth":0,"parameterNumber":2,"parameterNumberName":"U-component_of_WINDS"},"data":[0,0,0,0,0,0,0,0,0,0,0,0,0,0,0,0,0,0,0,0,0,0,0,0,0,0,0,0,0,0,0,0,0,0,0,0,0,0,0,0,0,0,0,0,0,0,0,0,0,0,0,0,0,0,0,0,0,0,-2.248,-2.248,0,-2.2488,-2.2488,-2.2488,-2.2454,-2.2453,-2.2452,-2.2451,-2.2459,-2.2461,-2.2462,0,0,0,0,0,0,0,0,0,0,0,0,0,-2.2434,-2.2435,-2.248,-2.248,-2.248,-2.2488,-2.2488,-2.2488,-2.2454,-2.2453,-2.2452,-2.2451,-2.2459,-2.246,-2.2462,0,0,0,0,0,0,0,0,0,0,0,0,0,-2.2449,-2.2435,-2.2479,-2.2464,-2.2463,-2.2488,-2.2488,-2.2488,-2.2455,-2.2453,-2.2452,-2.245,-2.2459,-2.246,-2.2462,-2.2503,0,0,-2.2467,-2.2468,0,0,0,0,0,0,0,0,-2.2448,-2.2451,-2.2466,-2.2465,-2.2464,-2.2468,-2.2475,-2.2493,-2.2455,-2.2458,-2.2451,-2.2449,-2.2464,-2.2465,-2.247,-2.2503,-2.2504,-2.2467,-2.2469,-2.2469,-2.247,0,0,0,0,0,0,0,-2.2447,-2.245,-2.2483,-2.2466,-2.2465,-2.2456,-2.2457,-2.2478,-2.2469,-2.2457,-2.2455,-2.2456,-2.2463,-2.2468,-2.247,-2.2504,-2.2467,-2.2469,-2.247,-2.2471,-2.2571,-2.2572,0,0,0,0,0,0,-2.2448,-2.245,-2.2483,-2.2483,-2.2452,-2.2458,-2.2459,-2.2468,-2.2469,-2.2467,-2.2458,-2.2455,-2.2466,-2.2468,-2.247,-2.2517,-2.2469,-2.2471,-2.2472,-2.2569,-2.2571,-2.2573,0,0,0,0,0,0,-2.2447,-2.2452,-2.2482,-2.2466,-2.2469,-2.2461,-2.2472,-2.2469,-2.2475,-2.2469,-2.2467,-2.2465,-2.2465,-2.2467,-2.2495,-2.2517,-2.2472,-2.2473,-2.2567,-2.257,-2.2572,-2.2612,0,0,0,0,0,0,-2.2446,-2.2452,-2.2467,-2.2466,-2.247,-2.2507,-2.2473,-2.2471,-2.2478,-2.2474,-2.2475,-2.2474,-2.2464,-2.2492,-2.2497,-2.2519,-2.2475,-2.2565,-2.2568,-2.2571,-2.2609,-2.2616,-2.2622,0,0,0,0,0,-2.2445,-2.2478,-2.2468,-2.2472,-2.2489,-2.2509,-2.2511,-2.2498,-2.248,-2.2495,-2.2491,-2.2474,-2.2514,-2.2495,-2.25,-2.2523,-2.2564,-2.2567,-2.2571,-2.2606,-2.2615,-2.2622,0,0,0,0,0,0,-2.2481,-2.2478,-2.2466,-2.25,-2.2505,-2.2503,-2.2522,-2.2508,-2.2518,-2.2514,-2.2498,-2.2499,-2.2529,-2.2529,-2.2508,-2.2562,-2.2536,-2.254,-2.2561,-2.2569,-2.2575,-2.2574,-2.2476,0,0,0,0,0,-2.2494,-2.251,-2.2506,-2.2536,-2.2539,-2.253,-2.2538,-2.2528,-2.2532,-2.2534,-2.2532,-2.2537,-2.2551,-2.256,-2.2572,-2.2609,-2.2609,-2.2627,-2.2633,-2.2639,-2.2643,-2.2662,-2.267,-2.2585,-2.2585,-2.2585,0,0,-2.2519,-2.2518,-2.253,-2.2543,-2.2546,-2.2563,-2.2532,-2.2551,-2.2564,-2.2537,-2.2563,-2.2562,-2.2566,-2.2598,-2.2612,-2.2599,-2.2666,-2.2643,-2.2648,-2.2649,-2.2666,-2.2675,-2.2682,-2.2587,-2.2587,-2.2586,0,0,-2.2573,-2.2574,-2.26,-2.2603,-2.2607,-2.2601,-2.2607,-2.2607,-2.2605,-2.2631,-2.2611,-2.2626,-2.265,-2.2653,-2.2658,-2.2714,-2.2698,-2.2719,-2.2752,-2.2771,-2.2777,-2.2783,-2.2802,-2.281,-2.2723,-2.2723,-2.2723,0,-2.2603,-2.2628,-2.2615,-2.2635,-2.2642,-2.2619,-2.2644,-2.2648,-2.2656,-2.2661,-2.2646,-2.2675,-2.2676,-2.2709,-2.2723,-2.2728,-2.2734,-2.2718,-2.2777,-2.2783,-2.2788,-2.2807,-2.2814,-2.2725,-2.2725,-2.2725,-2.2724,0,-2.2665,-2.2683,-2.2703,-2.2711,-2.272,-2.2743,-2.2733,-2.2743,-2.2733,-2.2728,-2.2755,-2.2755,-2.2767,-2.2774,-2.2764,-2.2805,-2.2797,-2.278,-2.2753,-2.2799,-2.2816,-2.2823,-2.2729,-2.2728,-2.2727,-2.2726,0,0,-2.2742,-2.2743,-2.275,-2.2754,-2.2757,-2.277,-2.2792,-2.2803,-2.2812,-2.2819,-2.2837,-2.2857,-2.2842,-2.2847,-2.2838,-2.2854,-2.2898,-2.2835,-2.2835,-2.2846,-2.2943,-2.2955,-2.2964,-2.2888,-2.2889,-2.289,-2.2942,0,-2.2795,-2.2832,-2.2821,-2.2858,-2.2874,-2.2853,-2.2872,-2.2876,-2.2872,-2.2885,-2.2881,-2.2896,-2.2874,-2.2877,-2.2893,-2.2889,-2.2917,-2.2886,-2.2904,-2.2904,-2.2903,-2.2972,-2.2986,-2.3035,-2.2949,-2.295,-2.2951,0,-2.2861,-2.287,-2.2909,-2.2909,-2.2915,-2.2933,-2.2942,-2.2955,-2.2959,-2.2955,-2.2962,-2.2949,-2.297,-2.2943,-2.2972,-2.2951,-2.2958,-2.2957,-2.2959,-2.296,-2.293,-2.2975,-2.305,-2.3058,-2.2961,-2.296,-2.296,0,-2.2913,-2.2935,-2.2961,-2.2964,-2.2965,-2.2978,-2.2979,-2.2981,-2.2989,-2.2997,-2.3002,-2.3013,-2.3019,-2.3028,-2.3018,-2.2999,-2.3048,-2.3021,-2.3045,-2.3046,-2.3056,-2.3055,-2.3133,-2.3062,-2.3061,-2.3061,-2.3061,0,-2.2972,-2.2997,-2.2984,-2.3,-2.3027,-2.3014,-2.3041,-2.3039,-2.3042,-2.3057,-2.3039,-2.3054,-2.304,-2.3054,-2.3046,-2.3071,-2.3074,-2.3071,-2.3069,-2.3072,-2.3073,-2.3076,-2.3072,-2.3063,-2.3063,-2.3062,-2.3062,0,-2.3034,-2.3027,-2.3054,-2.3052,-2.3053,-2.3072,-2.3071,-2.3086,-2.3081,-2.3101,-2.3105,-2.3097,-2.3112,-2.3103,-2.3118,-2.3113,-2.3145,-2.3139,-2.3144,-2.3142,-2.3167,-2.3164,-2.3249,-2.326,-2.3182,-2.3183,-2.3183,0,-2.3073,-2.3091,-2.3092,-2.3101,-2.3103,-2.3118,-2.3125,-2.3113,-2.3122,-2.3128,-2.3142,-2.3155,-2.3165,-2.319,-2.3186,-2.3197,-2.319,-2.3219,-2.3192,-2.3195,-2.319,-2.3189,-2.319,-2.3224,-2.3225,-2.3226,-2.3227,0,-2.3141,-2.3137,-2.3148,-2.3159,-2.3169,-2.3177,-2.3183,-2.3191,-2.3179,-2.319,-2.3205,-2.3212,-2.3228,-2.3241,-2.3251,-2.3252,-2.3237,-2.3235,-2.3242,-2.3245,-2.3247,-2.3246,-2.3159,-2.3233,-2.3233,-2.3232,-2.3232,-2.3232,-2.3192,-2.3208,-2.3211,-2.3224,-2.3228,-2.3234,-2.3248,-2.3245,-2.3257,-2.3268,-2.3261,-2.3278,-2.3281,-2.3293,-2.3296,-2.3309,-2.3297,-2.3306,-2.3308,-2.3311,-2.3314,-2.3246,-2.3311,-2.3311,-2.331,-2.331,-2.331,0,-2.326,-2.3261,-2.3273,-2.3283,-2.3293,-2.3279,-2.3285,-2.3295,-2.3311,-2.3315,-2.3325,-2.3342,-2.3355,-2.3352,-2.3364,-2.3375,-2.3369,-2.3378,-2.3377,-2.3377,-2.3324,-2.3317,-2.3383,-2.3383,-2.3383,-2.3383,-2.3383,-2.3383,-2.3296,-2.3321,-2.3317,-2.3343,-2.3344,-2.3361,-2.3365,-2.3371,-2.3374,-2.3394,-2.3405,-2.3403,-2.3404,-2.3415,-2.3426,-2.3425,-2.343,-2.3442,-2.3438,-2.3388,-2.3381,-2.3374,-2.3368,-2.3443,-2.3443,-2.349,-2.3491,-2.3491]},{"header":{"parameterUnit":"m.s-1","parameterCategory":1,"la1":30.2991,"la2":30.254,"lo1":-89.0895,"lo2":-89.0444,"dy":0.0017,"dx":0.0017,"nx":28,"ny":28,"refTime":"2024-07-08T03:00:00:Z","depth":0,"parameterNumber":3,"parameterNumberName":"V-component_of_WINDS"},"data":[0,0,0,0,0,0,0,0,0,0,0,0,0,0,0,0,0,0,0,0,0,0,0,0,0,0,0,0,0,0,0,0,0,0,0,0,0,0,0,0,0,0,0,0,0,0,0,0,0,0,0,0,0,0,0,0,0,0,3.629,3.629,0,3.633,3.633,3.633,3.6276,3.6274,3.6272,3.627,3.6308,3.6311,3.6313,0,0,0,0,0,0,0,0,0,0,0,0,0,3.6163,3.6165,3.629,3.629,3.6291,3.633,3.633,3.6331,3.6276,3.6274,3.6271,3.6269,3.6307,3.631,3.6314,0,0,0,0,0,0,0,0,0,0,0,0,0,3.6212,3.6166,3.629,3.6268,3.6267,3.6329,3.633,3.6331,3.6277,3.6274,3.6271,3.6268,3.6306,3.631,3.6314,3.6399,0,0,3.6327,3.6329,0,0,0,0,0,0,0,0,3.6209,3.6216,3.6271,3.627,3.6268,3.6295,3.6299,3.6353,3.6277,3.6273,3.627,3.6266,3.6306,3.631,3.6324,3.6401,3.6402,3.6328,3.633,3.6332,3.6333,0,0,0,0,0,0,0,3.6206,3.6214,3.6305,3.6272,3.627,3.6255,3.6259,3.6309,3.6305,3.6273,3.6269,3.6275,3.6304,3.632,3.6324,3.6403,3.6327,3.6331,3.6334,3.6335,3.6549,3.6552,0,0,0,0,0,0,3.6205,3.6212,3.6304,3.6307,3.6231,3.626,3.6264,3.6289,3.6304,3.6304,3.6277,3.6272,3.6314,3.6319,3.6325,3.6424,3.6332,3.6336,3.6338,3.6546,3.655,3.6553,0,0,0,0,0,0,3.6203,3.6214,3.6303,3.6258,3.6268,3.6265,3.6294,3.6292,3.6307,3.6308,3.6306,3.6294,3.6312,3.6319,3.6381,3.6425,3.6338,3.6342,3.6542,3.6547,3.6551,3.6624,0,0,0,0,0,0,3.6199,3.6214,3.6247,3.626,3.6271,3.6359,3.6297,3.6294,3.6314,3.6308,3.6323,3.6322,3.631,3.6375,3.6385,3.6429,3.6345,3.6538,3.6544,3.655,3.6617,3.663,3.6641,0,0,0,0,0,3.6195,3.6265,3.6249,3.626,3.6313,3.6362,3.6368,3.6353,3.6318,3.6351,3.6351,3.6322,3.6418,3.6381,3.6392,3.6439,3.6535,3.6543,3.655,3.6612,3.6628,3.6641,0,0,0,0,0,0,3.6257,3.6267,3.6248,3.6325,3.6343,3.6352,3.6393,3.6371,3.6398,3.6391,3.637,3.6374,3.644,3.6445,3.6404,3.652,3.6471,3.648,3.6514,3.6529,3.6541,3.6538,3.6348,0,0,0,0,0,3.628,3.632,3.6326,3.6393,3.6403,3.6397,3.6417,3.6404,3.6422,3.6429,3.6433,3.645,3.6484,3.6507,3.6538,3.6618,3.6619,3.6654,3.6666,3.6676,3.6685,3.6725,3.6741,3.6576,3.6576,3.6576,0,0,3.6328,3.6338,3.6364,3.6406,3.6418,3.6458,3.6403,3.6449,3.6478,3.6435,3.6494,3.6498,3.6515,3.6585,3.6617,3.6592,3.673,3.6685,3.6693,3.6696,3.6734,3.675,3.6764,3.6581,3.658,3.6579,0,0,3.6435,3.6447,3.6503,3.6517,3.6536,3.6531,3.6545,3.6557,3.6558,3.6617,3.6585,3.6618,3.6678,3.6691,3.6706,3.6816,3.679,3.6826,3.6889,3.6929,3.6942,3.6953,3.6992,3.7006,3.6835,3.6835,3.6835,0,3.6491,3.6552,3.6535,3.6583,3.6601,3.6564,3.662,3.6634,3.6662,3.6675,3.6647,3.672,3.6729,3.6801,3.6828,3.6841,3.6855,3.6825,3.6942,3.6953,3.6963,3.6999,3.7014,3.6839,3.6839,3.6838,3.6838,0,3.6619,3.6662,3.6705,3.6734,3.6757,3.6809,3.6798,3.6823,3.6808,3.6805,3.6864,3.6874,3.6906,3.6922,3.6907,3.6992,3.6976,3.6945,3.6895,3.6984,3.7017,3.7031,3.6846,3.6844,3.6843,3.6842,0,0,3.6768,3.6786,3.6802,3.6814,3.6831,3.6863,3.6912,3.6944,3.6966,3.6986,3.7026,3.7076,3.7047,3.7064,3.705,3.7085,3.717,3.705,3.705,3.7071,3.7262,3.7285,3.7302,3.7153,3.7155,3.7157,3.7261,0,3.6874,3.696,3.6945,3.7028,3.7066,3.7031,3.7073,3.7088,3.7087,3.7118,3.7115,3.7151,3.7111,3.7121,3.7154,3.7153,3.7208,3.7145,3.7188,3.719,3.7185,3.7319,3.7344,3.7441,3.7274,3.7276,3.7278,0,3.701,3.7035,3.7122,3.7133,3.7148,3.7187,3.7214,3.7244,3.7259,3.7256,3.7274,3.7253,3.73,3.7249,3.7313,3.7271,3.7287,3.7289,3.7292,3.7296,3.7239,3.7326,3.7472,3.7486,3.7298,3.7297,3.7295,0,3.7109,3.7165,3.7223,3.7235,3.7248,3.7276,3.7283,3.7295,3.7315,3.7338,3.735,3.7378,3.7394,3.7415,3.7402,3.7366,3.7468,3.7416,3.7465,3.7465,3.7488,3.7487,3.7639,3.7499,3.7499,3.7499,3.7499,0,3.7229,3.7283,3.7268,3.7304,3.7363,3.7344,3.7403,3.7405,3.7416,3.7451,3.7422,3.7455,3.7435,3.7467,3.7456,3.751,3.7517,3.7515,3.7511,3.7517,3.7518,3.7528,3.7521,3.7503,3.7502,3.7501,3.7501,0,3.7349,3.7341,3.7403,3.741,3.7413,3.7457,3.7462,3.7495,3.7491,3.7535,3.7545,3.7538,3.7573,3.7562,3.7599,3.7592,3.766,3.7648,3.7656,3.7653,3.7702,3.7697,3.7865,3.7886,3.7734,3.7735,3.7737,0,3.7427,3.7468,3.7479,3.7501,3.751,3.7545,3.7564,3.7547,3.7568,3.7588,3.7618,3.7651,3.7676,3.7733,3.7731,3.7759,3.7747,3.7804,3.7751,3.7755,3.7747,3.7745,3.7748,3.7814,3.7816,3.7818,3.7819,0,3.7564,3.7558,3.7588,3.7616,3.764,3.7661,3.768,3.7699,3.7682,3.7707,3.7743,3.7762,3.78,3.7833,3.7858,3.7863,3.7838,3.7835,3.7848,3.7855,3.7857,3.7856,3.7684,3.7832,3.783,3.7829,3.7829,3.7828,3.7665,3.7699,3.7712,3.7746,3.7758,3.7775,3.7806,3.7806,3.7835,3.7865,3.7853,3.7894,3.7906,3.7937,3.7946,3.7976,3.7954,3.7973,3.7978,3.7982,3.7989,3.7852,3.7981,3.798,3.798,3.798,3.798,0,3.7801,3.7807,3.7838,3.7865,3.7891,3.7865,3.7883,3.7907,3.7943,3.7957,3.7982,3.8022,3.8052,3.8052,3.808,3.8105,3.8094,3.8113,3.8111,3.8112,3.8007,3.7993,3.8121,3.8121,3.8121,3.8121,3.8121,3.8121,3.7874,3.793,3.7925,3.7986,3.7991,3.8031,3.8044,3.8059,3.807,3.8116,3.8142,3.8141,3.8149,3.8177,3.8203,3.8202,3.8214,3.8237,3.8232,3.8134,3.812,3.8106,3.8093,3.824,3.824,3.8334,3.8335,3.8336]}]]